Weather History for Tallahassee, FL

Change the Weather History Date:

Friday, February 28, 2014

  Actual Average Record
Temperature  
Mean Temperature 47 °F 57 °F  
Max Temperature 67 °F 71 °F 89 °F (1948)
Min Temperature 27 °F 44 °F 18 °F (2002)
Degree Days  
Heating Degree Days 18    
Month to date heating degree days 227  
Since 1 July heating degree days 1143  
Cooling Degree Days 0    
Month to date cooling degree days 10  
Year to date cooling degree days 12  
Moisture  
Dew Point 25 °F    
Average Humidity 50    
Maximum Humidity 85    
Minimum Humidity 15    
Precipitation  
Precipitation 0.00 in 0.18 in 1.70 in (1966)
Month to date precipitation 4.38 4.85  
Year to date precipitation 8.05 9.19  
Sea Level Pressure  
Sea Level Pressure 30.09 in    
Wind  
Wind Speed 1 mph (SE)    
Max Wind Speed 9 mph    
Max Gust Speed 17 mph    
Visibility 10 miles    
Events      
T = Trace of Precipitation, MM = Missing Value Source: NWS Daily Summary

Daily Weather History Graph

Daily Weather History Graph

Search for Another Location

Airport:

Trip Planner

Search our weather history database for the weather conditions in past years. The results will help you decide how hot, cold, wet, or windy it might be!

Date:

Astronomy

Feb. 28, 2014 Rise Set
Actual Time 7:04 AM EST 6:35 PM EST
Civil Twilight 6:40 AM EST 6:59 PM EST
Nautical Twilight 6:12 AM EST 7:27 PM EST
Astronomical Twilight 5:44 AM EST 7:55 PM EST
Moon 6:17 AM EST (2/28) 6:10 PM EST (2/28)
Length of Visible Light 12h 19m
Length of Day
11h 30m
Waning Crescent, 1% of the Moon is Illuminated
Feb 28
Waning Crescent
Mar 1
New
Mar 8
First Quarter
Mar 16
Full
Mar 23
Last Quarter

Hourly Weather History & Observations

Time (EST) Temp. Dew Point Humidity Pressure Visibility Wind Dir Wind Speed Gust Speed Precip Events Conditions
12:53 AM 33.1 °F 28.0 °F 82% 30.02 in 10.0 mi Calm Calm - N/A   Clear
1:53 AM 32.0 °F 27.0 °F 82% 30.01 in 10.0 mi Calm Calm - N/A   Clear
2:53 AM 30.9 °F 26.1 °F 82% 30.01 in 10.0 mi Calm Calm - N/A   Clear
3:53 AM 28.9 °F 23.0 °F 78% 30.02 in 10.0 mi Calm Calm - N/A   Clear
4:53 AM 28.9 °F 24.1 °F 82% 30.04 in 10.0 mi Calm Calm - N/A   Clear
5:53 AM 28.9 °F 23.0 °F 78% 30.04 in 10.0 mi Calm Calm - N/A   Clear
6:53 AM 28.0 °F 24.1 °F 85% 30.08 in 10.0 mi Calm Calm - N/A   Clear
7:53 AM 30.9 °F 26.1 °F 82% 30.09 in 10.0 mi Calm Calm - N/A   Clear
8:53 AM 43.0 °F 30.0 °F 60% 30.12 in 10.0 mi Calm Calm - N/A   Clear
9:53 AM 50.0 °F 19.9 °F 31% 30.14 in 10.0 mi NNE 5.8 mph - N/A   Clear
10:53 AM 53.1 °F 19.0 °F 26% 30.15 in 10.0 mi East 5.8 mph - N/A   Clear
11:53 AM 55.9 °F 17.1 °F 22% 30.14 in 10.0 mi SE 4.6 mph - N/A   Clear
12:53 PM 57.9 °F 17.1 °F 20% 30.11 in 10.0 mi SW 3.5 mph - N/A   Partly Cloudy
1:53 PM 61.0 °F 17.1 °F 18% 30.08 in 10.0 mi Calm Calm - N/A   Partly Cloudy
2:53 PM 64.0 °F 19.0 °F 18% 30.06 in 10.0 mi Variable 4.6 mph - N/A   Clear
3:53 PM 66.0 °F 17.1 °F 15% 30.05 in 10.0 mi Calm Calm - N/A   Clear
4:53 PM 66.0 °F 18.0 °F 16% 30.07 in 10.0 mi Calm Calm - N/A   Partly Cloudy
5:53 PM 64.9 °F 19.9 °F 18% 30.07 in 10.0 mi Calm Calm - N/A   Partly Cloudy
6:53 PM 57.9 °F 28.9 °F 33% 30.09 in 10.0 mi South 5.8 mph - N/A   Scattered Clouds
7:53 PM 52.0 °F 33.1 °F 49% 30.10 in 10.0 mi Calm Calm - N/A   Clear
8:53 PM 48.0 °F 35.1 °F 61% 30.14 in 10.0 mi Calm Calm - N/A   Clear
9:53 PM 44.1 °F 34.0 °F 68% 30.17 in 10.0 mi Calm Calm - N/A   Clear
10:53 PM 45.0 °F 35.1 °F 68% 30.17 in 10.0 mi Calm Calm - N/A   Clear
11:53 PM 44.1 °F 36.0 °F 73% 30.14 in 10.0 mi Calm Calm - N/A   Clear